www.pogodaiklimat.ru
ПОГОДА в Порвоо
Время
(UTC), дата
16 16.10
17 16.10
18 16.10
19 16.10
20 16.10
21 16.10
22 16.10
23 16.10
00 17.10
01 17.10
02 17.10
03 17.10
04 17.10
05 17.10
06 17.10
07 17.10
08 17.10
09 17.10
10 17.10
11 17.10
12 17.10
13 17.10
14 17.10
15 17.10
16 17.10
17 17.10
18 17.10
19 17.10
20 17.10
21 17.10
22 17.10
23 17.10
00 18.10
01 18.10
02 18.10
03 18.10
04 18.10
05 18.10
06 18.10
07 18.10
09 18.10
10 18.10
11 18.10
12 18.10
13 18.10
14 18.10
15 18.10
16 18.10
17 18.10
18 18.10
19 18.10
20 18.10
21 18.10
22 18.10
23 18.10
00 19.10
01 19.10
02 19.10
03 19.10
04 19.10
05 19.10
06 19.10
07 19.10
08 19.10
09 19.10
10 19.10
11 19.10
12 19.10
13 19.10
14 19.10
15 19.10
16 19.10
17 19.10
18 19.10
19 19.10
20 19.10
21 19.10
22 19.10
23 19.10
00 20.10
01 20.10
02 20.10
03 20.10
04 20.10
05 20.10
06 20.10
07 20.10
08 20.10
09 20.10
10 20.10
11 20.10
12 20.10
13 20.10
14 20.10
15 20.10
16 20.10
17 20.10
18 20.10
19 20.10
20 20.10
21 20.10
22 20.10
23 20.10
00 21.10
01 21.10
02 21.10
03 21.10
04 21.10
05 21.10
06 21.10
07 21.10
08 21.10
09 21.10
10 21.10
11 21.10
12 21.10
13 21.10
14 21.10
15 21.10
16 21.10
17 21.10
18 21.10
19 21.10
20 21.10
21 21.10
22 21.10
23 21.10
00 22.10
01 22.10
02 22.10
03 22.10
04 22.10
05 22.10
06 22.10
07 22.10
08 22.10
09 22.10
10 22.10
11 22.10
12 22.10
13 22.10
14 22.10
15 22.10
16 22.10
17 22.10
18 22.10
19 22.10
20 22.10
21 22.10
22 22.10
23 22.10
00 23.10
01 23.10
02 23.10
03 23.10
04 23.10
05 23.10
06 23.10
07 23.10
08 23.10
09 23.10
10 23.10
11 23.10
12 23.10
13 23.10
14 23.10
Ветер
(напр.,м/с)
Видим. Явления Облачность Т
(С)
Тd
(С)
f
(%)
Тe
(С)
Тes
(С)
Комфортность P
(гПа)
Po
(гПа)
Тmin
(С)
Tmax
(С)
R
(мм)
R24
(мм)
S
(см)
СВ 3-6
{8}
5000 м морось 10/10 50 м
[]
+4.3 +4.2 99 0 0 по сезону 1011.1 1008.2
СВ 4-7
{9}
4400 м слаб. морось 10/10 50 м
[]
+4.2 +4.2 100 -1 -1 по сезону 1010.9 1008.0 0.1
СВ 3-6
{9}
3500 м морось {ливн. осадки} 10/10 50 м
[]
+4.1 +4.1 100 0 0 по сезону 1010.7 1007.8 +4.1 +7.5 0.1
СВ 3-7
{7}
6000 м в посл. час морось 10/10 50 м
[]
+4.1 +4.0 99 0 0 по сезону 1010.8 1007.9 0.1
СВ 3-5
{7}
7000 м дымка 10/10 100 м
[]
+4.1 +4.0 99 0 0 по сезону 1010.5 1007.6
СВ 3-7
{8}
8000 м дымка {ливн. осадки} 10/10 100 м
[]
+4.1 +4.0 99 0 0 по сезону 1010.4 1007.5
СВ 4-7
{8}
4500 м дымка 10/10 50 м
[]
+4.1 +4.1 100 -1 -1 по сезону 1010.2 1007.3
СВ 4-7
{8}
7000 м дымка 10/10 50 м
[]
+4.1 +4.1 100 -1 -1 по сезону 1010.2 1007.3
СВ 4-7
{7}
9000 м дымка {ливн. осадки} 10/10 100 м
[]
+4.3 +4.2 99 -0 -0 по сезону 1009.9 1007.0
СВ 4-7
{9}
3600 м дымка 10/10 100 м
[]
+4.3 +4.2 99 -0 -0 по сезону 1009.7 1006.8
СВ 4-7
{8}
5000 м дымка 10/10 100 м
[]
+4.2 +4.2 100 -1 -1 по сезону 1009.5 1006.7
СВ 4-9
{9}
6000 м дымка 10/10 100 м
[]
+3.9 +3.9 100 -1 -1 по сезону 1009.6 1006.8
СВ 3-7
{7}
5000 м дымка 10/0 100 м
[]
+3.9 +3.9 100 -0 -0 по сезону 1009.4 1006.5
СВ 3-6
{8}
3900 м дымка 10/0 50 м
[]
+3.8 +3.8 100 -0 -0 по сезону 1009.2 1006.3
В 4-10
{10}
3600 м дымка 10/10 50 м
[]
+3.8 +3.8 100 -1 -1 по сезону 1009.2 1006.3 +3.8 +4.3 0
СВ 4-7
{11}
5000 м дымка 10/10 100 м
[]
+3.9 +3.9 100 -1 -1 по сезону 1009.2 1006.3
В 4-8
{8}
3800 м морось 10/10 100 м
[]
+4.0 +3.9 99 -1 -1 по сезону 1009.2 1006.3 0.3
СВ 4-8
{8}
3900 м слаб. морось {туман} 10/10 100 м
[]
+4.1 +4.0 99 -1 -1 по сезону 1009.1 1006.2 0.1
В 4-7
{8}
5000 м слаб. ливневой дождь 10/10 50 м
[]
+4.3 +4.2 99 -0 -0 по сезону 1009.2 1006.3 0.1
СВ 4-8
{8}
5000 м морось 10/10 50 м
[]
+4.4 +4.4 100 -0 -0 по сезону 1009.3 1006.4 0.3
СВ 3-7
{7}
6000 м дымка {ливн. осадки} 10/10 100 м
[]
+4.6 +4.5 99 +1 +1 по сезону 1009.5 1006.6
СВ 4-8
{8}
15 км слаб. морось 10/10 100 м
[]
+4.8 +4.6 99 0 0 по сезону 1009.5 1006.6
СВ 3-7
{8}
15 км морось 10/10 100 м
[]
+4.8 +4.6 99 +1 +1 по сезону 1009.9 1007.0 0.2
В 3-6
{8}
40 км в посл. час снег {дождь, морось} 10/10 100 м
[]
+4.8 +4.5 98 +1 +1 по сезону 1010.3 1007.4
СВ 3-5
{7}
21 км слаб. дождь 10/10 100 м
[]
+4.8 +4.4 97 +1 +1 по сезону 1010.3 1007.4 0.1
СВ 3-6
{8}
35 км морось 10/10 200 м
[]
+4.8 +4.3 97 +1 +1 по сезону 1010.7 1007.8 0.4
СВ 3-6
{6}
35 км ливневой дождь 10/10 100 м
[]
+4.6 +4.3 98 +1 +1 по сезону 1010.5 1007.7 +3.8 +4.9 0.1
СВ 3-5
{5}
35 км морось 10/10 100 м
[]
+4.5 +4.3 99 +1 +1 по сезону 1010.9 1008.0 0.1
СВ 3-5
{5}
50 км слаб. дождь 10/10 100 м
[]
+4.5 +4.3 99 +1 +1 по сезону 1011.3 1008.4 0.1
СВ 3-5
{5}
30 км морось {ливн. осадки, дождь} 10/10 100 м
[]
+4.4 +4.3 99 +1 +1 по сезону 1011.3 1008.5 0.2
СВ 2-4
{5}
13 км дождь 10/10 100 м
[]
+4.3 +4.3 100 +1 +1 по сезону 1011.5 1008.6 2
СВ 3-4
{5}
11 км слаб. дождь 10/10 50 м
[]
+4.3 +4.3 100 0 0 по сезону 1011.6 1008.8 0.9
СВ 3-4
{4}
10 км слаб. дождь 9/9 50 м
[]
+4.2 +4.2 100 0 0 по сезону 1012.0 1009.1 0.8
СВ 2-3
{4}
16 км морось 10/10 50 м
[]
+4.3 +4.3 100 +1 +1 по сезону 1012.1 1009.2 1
СВ 2-3
{4}
17 км слаб. ливневой дождь 9/9 50 м
[]
+4.3 +4.3 100 +1 +1 по сезону 1012.2 1009.3 0.1
СВ 1-2
{4}
11 км в посл. час снег {ливн. осадки, дождь} 9/9 50 м
[]
+4.3 +4.3 100 +3 +3 по сезону 1012.5 1009.6
СВ 1-2
{2}
5000 м дымка 10/0 50 м
[]
+4.4 +4.4 100 +3 +3 по сезону 1012.3 1009.4
В 2-2
{2}
2500 м дымка 9/0 50 м
[]
+4.4 +4.4 100 +1 +1 по сезону 1012.7 1009.8
Ю 1-1
{2}
1900 м дымка {ливн. осадки, дождь} 10/10 <50 м
[]
+4.4 +4.4 100 +3 +3 по сезону 1013.0 1010.0 +4.2 +4.6 0
В 1-2
{2}
3400 м дымка 10/0 50 м
[]
+4.7 +4.7 100 +3 +3 по сезону 1013.2 1010.3
ЮВ 2-2
{3}
5000 м дымка 10/0 50 м
[]
+6.0 +6.0 100 +3 +4 по сезону 1013.6 1010.8
ЮВ 2-3
{3}
10 км 9/9 50 м
[]
+7.2 +7.2 100 +5 +5 тепло 1013.5 1010.7
ЮВ 1-2
{3}
16 км 10/10 50 м
[]
+8.0 +7.9 99 +7 +7 тепло 1013.4 1010.5
ЮВ 2-3
{4}
22 км 9/9 100 м
[]
+8.7 +8.5 99 +7 +7 тепло 1012.9 1010.1
ЮВ 3-4
{4}
22 км 9/9 100 м
[]
+9.1 +8.9 99 +6 +7 тепло 1012.6 1009.8
ЮВ 2-3
{4}
20 км 10/10 100 м
[]
+9.1 +9.0 99 +7 +7 тепло 1012.6 1009.7
ЮВ 2-3
{4}
9000 м 10/10 100 м
[]
+9.1 +9.1 100 +7 +7 тепло 1012.4 1009.6
ЮВ 3-4
{4}
14 км 9/9 50 м
[]
+9.1 +9.1 100 +6 +6 тепло 1012.3 1009.5
ЮВ 2-4
{4}
6000 м дымка 9/9 50 м
[]
+9.4 +9.4 100 +8 +8 тепло 1012.1 1009.3
ЮВ 3-4
{5}
3100 м слаб. морось {дождь} 9/9 50 м
[]
+9.4 +9.4 100 +7 +7 тепло 1011.7 1008.8 +4.4 +9.4 0.1
ЮВ 3-4
{6}
6000 м слаб. ливневой дождь 10/0 50 м
[]
+9.5 +9.5 100 +7 +7 тепло 1011.5 1008.6 0.1
ЮВ 3-4
{5}
1600 м слаб. дождь 10/0 <50 м
[]
+9.7 +9.7 100 +7 +7 тепло 1011.1 1008.3 0.1
ЮВ 3-4
{4}
900 м туман {ливн. осадки, дождь} ?/? +9.9 +9.9 100 +7 +7 тепло 1010.6 1007.8 0.1
ЮВ 2-2
{3}
400 м туман ?/? +10.0 +10.0 100 +8 +8 тепло 1010.4 1007.6 0.1
Ю 2-2
{2}
400 м туман ?/? +10.3 +10.3 100 +9 +9 тепло 1010.1 1007.3 0.1
Ю 2-2
{3}
200 м слаб. дождь ?/? +10.8 +10.8 100 +9 +9 тепло 1009.7 1006.8 0.1
Ю 2-3
{4}
3300 м ливневой дождь 10/0 <50 м
[]
+11.2 +11.2 100 +10 +10 тепло 1009.0 1006.2 0.7
Ю 2-4
{4}
1800 м слаб. дождь 10/0 50 м
[]
+11.3 +11.3 100 +10 +10 тепло 1008.6 1005.8 0.6
ЮВ 2-3
{4}
800 м пыльная буря {ливн. осадки, дождь} ?/? +11.4 +11.4 100 +10 +10 тепло 1008.0 1005.2 0.3
Ю 2-4
{4}
5000 м в посл. час дождь 10/10 50 м
[]
+11.5 +11.5 100 +10 +10 тепло 1007.6 1004.8
Ю 4-6
{6}
7000 м слаб. ливневой дождь 10/10 50 м
[]
+11.6 +11.6 100 +9 +9 тепло 1007.4 1004.5 0.3
Ю 4-6
{7}
6000 м в посл. час морось {ливн. осадки, дождь} 9/0 50 м
[]
+11.5 +11.5 100 +9 +9 тепло 1007.0 1004.2 +9.3 +11.6 0.1 0
Ю 4-7
{8}
5000 м дымка 9/0 50 м
[]
+11.5 +11.5 100 +9 +9 тепло 1006.3 1003.5
Ю 4-6
{6}
5000 м дымка 10/10 50 м
[]
+11.5 +11.5 100 +9 +9 тепло 1006.0 1003.2
Ю 4-8
{9}
5000 м слаб. дождь {морось} 10/10 100 м
[]
+11.5 +11.4 99 +9 +9 тепло 1006.3 1003.5 1
ЮЗ 4-9
{9}
9000 м слаб. дождь 10/10 100 м
[]
+11.8 +11.6 99 +9 +9 тепло 1006.3 1003.5 0.6
ЮЗ 3-7
{9}
20 км 10/10 200 м
[]
+12.0 +11.5 97 +10 +10 тепло 1006.3 1003.5
ЮЗ 5-9
{9}
28 км {ливн. осадки, дождь} 9/9 200 м
[]
+12.1 +11.4 95 +10 +10 тепло 1006.6 1003.8
ЮЗ 4-8
{9}
40 км 1/0 300 м
[]
+11.9 +10.2 89 +10 +10 тепло 1007.1 1004.3
ЮЗ 3-6
{8}
45 км 1/0 300 м
[]
+11.3 +9.8 90 +9 +9 тепло 1007.7 1004.9
ЮЗ 3-6
{7}
45 км 1/0 300 м
[]
+10.5 +9.3 92 +8 +8 тепло 1008.5 1005.6
ЮЗ 3-5
{8}
35 км 1/0 300 м
[]
+10.1 +9.3 95 +8 +8 тепло 1009.0 1006.2
ЮЗ 4-9
{9}
29 км 9/9 1000 м
[]
+10.8 +9.8 94 +8 +8 тепло 1009.0 1006.1
ЮЗ 4-7
{7}
40 км 10/0 1000 м
[]
+10.6 +9.4 92 +8 +8 тепло 1009.3 1006.4 +10.0 +12.1
ЮЗ 3-5
{7}
30 км 6/4 300 м
[]
+10.4 +9.4 94 +8 +8 тепло 1009.7 1006.9
ЮЗ 3-5
{7}
35 км 9/9 600 м
[]
+10.4 +9.2 92 +8 +8 тепло 1009.9 1007.1
ЮЗ 3-7
{7}
40 км 6/6 600 м
[]
+10.6 +9.3 92 +8 +8 тепло 1010.6 1007.8
ЮЗ 3-7
{9}
45 км 9/9 600 м
[]
+10.6 +8.8 89 +8 +8 тепло 1011.3 1008.4
ЮЗ 3-4
{6}
45 км 6/6 600 м
[]
+10.2 +8.7 90 +8 +8 тепло 1011.4 1008.5
ЮЗ 3-5
{5}
35 км 1/0 600 м
[]
+9.4 +8.5 94 +7 +7 тепло 1011.5 1008.7
З 3-5
{5}
40 км 9/0 300 м
[]
+9.6 +8.7 94 +7 +7 тепло 1012.2 1009.4
ЮЗ 2-4
{5}
30 км 9/9 300 м
[]
+9.4 +8.6 95 +8 +8 тепло 1012.6 1009.8
З 3-4
{4}
40 км 6/0 600 м
[]
+9.4 +8.5 94 +7 +7 тепло 1013.0 1010.1
ЮЗ 2-4
{4}
26 км 1/0 600 м
[]
+8.4 +8.1 98 +6 +6 тепло 1013.4 1010.5
СЗ 1-2
{4}
18 км ясно +7.7 +7.6 99 +7 +7 тепло 1013.6 1010.8
ЮЗ 1-2
{2}
14 км 6/0 600 м
[]
+7.7 +7.7 100 +7 +7 тепло 1014.6 1011.7 +6.5 +10.9 0
штиль 0-1
{2}
14 км 9/4 600 м
[]
+8.1 +8.1 100 +7 +7 тепло 1014.8 1012.0
С 1-2
{2}
21 км 1/0 200 м
[]
+9.4 +8.9 97 +9 +10 тепло 1015.2 1012.4
С 1-1
{2}
26 км 9/0 200 м
[]
+9.7 +8.9 95 +9 +10 тепло 1015.8 1012.9
СВ 2-4
{4}
17 км 9/9 200 м
[]
+10.5 +9.1 91 +9 +9 тепло 1015.7 1012.8
В 2-3
{5}
45 км 9/9 200 м
[]
+9.8 +8.5 92 +8 +8 тепло 1015.6 1012.7
В 3-5
{6}
45 км 9/9 200 м
[]
+9.6 +8.3 92 +7 +7 тепло 1015.5 1012.6
В 3-5
{5}
40 км 9/0 200 м
[]
+9.4 +8.2 92 +7 +7 тепло 1015.3 1012.4
В 4-6
{6}
35 км в посл. час дождь 9/0 200 м
[]
+9.1 +8.2 94 +6 +6 тепло 1014.5 1011.7
В 3-5
{6}
11 км ливневой дождь 9/0 100 м
[]
+8.8 +8.5 98 +6 +6 тепло 1014.4 1011.6 0.2
В 3-5
{5}
11 км морось 9/9 50 м
[]
+8.9 +8.9 100 +6 +6 тепло 1013.4 1010.5 0.9
ЮВ 3-5
{5}
8000 м дождь 9/9 50 м
[]
+9.6 +9.6 100 +7 +7 тепло 1012.7 1009.8 1
ЮВ 3-5
{5}
9000 м дождь {ливн. осадки} 9/9 50 м
[]
+9.6 +9.6 100 +7 +7 тепло 1011.9 1009.1 +6.9 +10.5 2
Ю 3-5
{5}
13 км слаб. дождь 9/9 50 м
[]
+9.5 +9.5 100 +7 +7 тепло 1011.5 1008.7 2
ЮВ 1-2
{6}
9000 м дождь 9/9 50 м
[]
+9.1 +9.1 100 +8 +8 тепло 1010.6 1007.8 2
ЮВ 1-3
{3}
14 км морось {дождь} 9/9 300 м
[]
+9.0 +9.0 100 +8 +8 тепло 1009.7 1006.9 0.7
ЮЗ 1-2
{3}
13 км в посл. час дождь 9/6 50 м
[]
+8.7 +8.7 100 +8 +8 тепло 1009.6 1006.8 0.1
Ю 2-3
{3}
5000 м слаб. ливневой дождь 9/9 <50 м
[]
+9.1 +9.1 100 +7 +7 тепло 1009.3 1006.5 0.2
З 3-4
{4}
25 км в посл. час снег {ливн. осадки, дождь} 9/9 100 м
[]
+9.9 +9.9 100 +7 +7 тепло 1009.2 1006.3 0.1
ЮЗ 3-4
{5}
50 км 9/0 600 м
[]
+9.5 +9.1 97 +7 +7 тепло 1008.9 1006.0
З 3-5
{5}
50 км 10/0 600 м
[]
+9.4 +9.1 98 +7 +7 тепло 1009.3 1006.5
З 3-7
{7}
7000 м морось {дождь} 9/9 200 м
[]
+9.2 +8.9 98 +7 +7 тепло 1009.8 1007.0
СЗ 5-8
{9}
50 км 10/10 200 м
[]
+8.4 +7.7 95 +5 +5 тепло 1010.8 1007.9
СЗ 5-7
{9}
30 км 10/10 200 м
[]
+6.3 +5.8 97 +2 +2 по сезону 1012.5 1009.6
СЗ 5-8
{10}
50 км {ливн. осадки, дождь} 10/10 100 м
[]
+5.1 +4.6 97 0 0 по сезону 1013.7 1010.8 +5.1 +10.0 0
СЗ 5-8
{9}
50 км 10/10 200 м
[]
+4.9 +4.2 95 0 0 по сезону 1015.0 1012.1
СЗ 3-5
{8}
50 км 10/10 200 м
[]
+5.4 +4.6 95 +2 +2 по сезону 1016.1 1013.2
СЗ 3-6
{6}
50 км 9/9 200 м
[]
+6.2 +4.7 90 +3 +3 по сезону 1016.8 1013.9
СЗ 3-6
{7}
50 км 10/10 300 м
[]
+6.7 +4.4 85 +4 +4 по сезону 1017.6 1014.7
СЗ 3-6
{6}
50 км 10/10 300 м
[]
+6.3 +4.1 86 +3 +3 по сезону 1018.3 1015.4
СЗ 3-5
{6}
50 км 10/10 300 м
[]
+6.1 +4.2 88 +3 +3 по сезону 1019.1 1016.2
С 2-4
{5}
50 км 10/10 300 м
[]
+5.8 +4.0 88 +3 +3 по сезону 1019.3 1016.4
СЗ 3-5
{5}
50 км 10/10 300 м
[]
+5.0 +3.3 89 +1 +1 по сезону 1019.7 1016.8
СЗ 2-2
{5}
50 км 10/10 200 м
[]
+4.7 +3.4 91 +2 +2 по сезону 1020.3 1017.4
С 2-3
{4}
35 км 10/10 200 м
[]
+4.2 +3.4 95 +1 +1 по сезону 1020.5 1017.6
-2
{3}
15 км 10/10 200 м
[]
+4.0 +3.6 97 1020.5 1017.5
С 1-1
{2}
9000 м дымка 10/10 100 м
[]
+3.8 +3.6 99 +2 +2 по сезону 1020.4 1017.5 +3.8 +6.8
СЗ 1-2
{2}
9000 м дымка 10/10 100 м
[]
+3.7 +3.5 99 +2 +2 по сезону 1020.4 1017.5
СЗ 1-2
{4}
7000 м слаб. морось 10/10 100 м
[]
+3.1 +2.9 99 +1 +1 по сезону 1020.4 1017.5
З 1-2
{3}
9000 м в посл. час снег {ливн. осадки, морось} 10/10 100 м
[]
+3.0 +2.9 99 +1 +1 по сезону 1019.9 1017.0
З 2-4
{4}
20 км 10/10 200 м
[]
+3.1 +2.6 97 -0 -0 по сезону 1020.1 1017.2
З 1-2
{5}
50 км 10/10 200 м
[]
+2.6 +2.2 97 +1 +1 по сезону 1019.5 1016.6
Ю 2-2
{2}
50 км {ливн. осадки, морось} 9/9 600 м
[]
+2.3 +2.1 99 -1 -1 по сезону 1019.0 1016.0
Ю 1-2
{2}
50 км 10/10 600 м
[]
+2.6 +2.5 99 +1 +1 по сезону 1018.2 1015.2
ЮВ 2-2
{3}
50 км 10/10 300 м
[]
+3.3 +2.7 96 0 0 по сезону 1017.2 1014.3
ЮВ 2-4
{5}
29 км в посл. час дождь {ливн. осадки, морось} 10/10 200 м
[]
+4.2 +3.8 97 +1 +1 по сезону 1016.0 1013.0
Ю 4-7
{7}
18 км слаб. ливневой дождь 10/10 100 м
[]
+8.0 +8.0 100 +4 +4 по сезону 1014.5 1011.7
ЮЗ 4-9
{11}
50 км 10/10 300 м
[]
+8.9 +7.8 93 +6 +6 тепло 1013.8 1010.9
ЮЗ 5-11
{11}
50 км {ливн. осадки, морось} 10/10 300 м
[]
+9.2 +8.1 93 +6 +6 тепло 1012.8 1010.0 +2.2 +9.2 0
ЮЗ 5-10
{10}
23 км морось 10/10 100 м
[]
+9.6 +9.0 96 +6 +6 тепло 1012.1 1009.2
ЮЗ 5-10
{11}
19 км слаб. ливневой дождь 10/10 100 м
[]
+9.7 +9.2 97 +6 +6 тепло 1011.1 1008.3 0.1
ЮЗ 5-9
{10}
30 км в посл. час дождь со снегом {ливн. осадки} 10/0 100 м
[]
+10.2 +9.6 96 +7 +7 тепло 1010.1 1007.3 0.1
ЮЗ 4-8
{9}
5000 м дымка 10/10 100 м
[]
+10.5 +10.1 97 +8 +8 тепло 1009.3 1006.5
ЮЗ 5-11
{11}
3600 м морось 10/10 100 м
[]
+10.7 +10.6 99 +8 +8 тепло 1008.2 1005.4 0.1
ЮЗ 4-8
{11}
4900 м слаб. морось {дождь} 10/10 100 м
[]
+10.8 +10.7 99 +8 +8 тепло 1007.2 1004.4 0.2
ЮЗ 5-10
{10}
50 км в посл. час морось 10/10 200 м
[]
+11.1 +10.1 94 +8 +8 тепло 1006.5 1003.7
З 5-10
{10}
50 км 9/6 300 м
[]
+10.7 +8.6 87 +8 +8 тепло 1006.2 1003.4
З 5-9
{15}
50 км {морось} 9/9 600 м
[]
+10.1 +6.9 81 +7 +7 тепло 1006.1 1003.3
З 5-9
{11}
50 км 9/1 600 м
[]
+9.8 +6.2 78 +7 +7 тепло 1006.3 1003.5
З 5-8
{9}
50 км 9/9 600 м
[]
+9.9 +6.3 78 +7 +7 тепло 1006.4 1003.6
ЮЗ 5-9
{10}
50 км {морось} 9/9 600 м
[]
+10.0 +7.1 82 +7 +7 тепло 1006.2 1003.4 +9.2 +11.1
З 5-9
{10}
50 км 10/10 600 м
[]
+10.3 +7.4 82 +7 +7 тепло 1006.3 1003.5
З 5-9
{11}
50 км 10/10 600 м
[]
+10.4 +7.4 82 +7 +7 тепло 1006.2 1003.4
З 5-9
{9}
50 км 6/0 600 м
[]
+10.3 +7.3 82 +7 +7 тепло 1006.1 1003.3
З 4-8
{9}
50 км 9/9 600 м
[]
+10.2 +7.1 81 +8 +8 тепло 1006.2 1003.3
З 4-7
{9}
50 км 9/9 600 м
[]
+9.7 +7.1 84 +7 +7 тепло 1006.6 1003.8
З 3-6
{8}
50 км ясно +8.8 +6.9 88 +6 +6 тепло 1007.0 1004.2
З 3-7
{8}
50 км 4/4 300 м
[]
+8.4 +6.8 90 +6 +6 тепло 1007.5 1004.6
З 3-5
{6}
50 км 10/0
[]
+8.0 +6.6 91 +5 +5 тепло 1007.5 1004.7
З 3-5
{6}
45 км 1/0
[]
+7.8 +6.5 91 +5 +5 тепло 1008.3 1005.4
З 3-5
{6}
45 км ясно +7.5 +6.5 93 +5 +5 тепло 1008.5 1005.7
З 3-5
{6}
40 км ясно +7.1 +6.3 95 +4 +4 по сезону 1009.1 1006.2
З 3-5
{5}
45 км ясно +7.1 +6.3 95 +4 +4 по сезону 1009.8 1006.9 +6.9 +10.4 0
З 3-6
{6}
35 км ясно +7.8 +6.5 91 +5 +5 тепло 1010.3 1007.4
З 3-5
{8}
40 км ясно +8.9 +6.8 87 +6 +7 тепло 1011.1 1008.3
З 4-7
{7}
40 км 1/0 300 м
[]
+9.6 +5.6 76 +7 +8 тепло 1011.6 1008.7
З 3-6
{7}
35 км ясно +10.2 +4.7 69 +8 +10 тепло 1012.0 1009.1
З 3-5
{7}
40 км ясно +11.0 +4.2 63 +9 +11 тепло 1012.3 1009.5
ЮЗ 3-6
{6}
45 км ясно +11.5 +3.3 57 +10 +11 тепло 1012.8 1010.0
ЮЗ 2-4
{6}
50 км 9/6
[]
+11.3 +5.1 66 +10 +10 тепло 1012.7 1009.9
Ю 2-4
{4}
45 км 9/9
[]
+10.7 +7.0 78 +9 +9 тепло 1013.1 1010.2
Местоположение метеостанции Порвоо (Финляндия): широта 60.39 долгота 25.61 высота над уровнем моря 22 м.
В архиве по умолчанию представлена погода в Порвоо за последнюю неделю. Архивные данные за месяц целиком и за предыдущие месяцы, начиная с января 2011 года, Вы можете получить, выбрав интересующий диапазон дат из раскрывающегося списка и нажав кнопку "Найти!".
*Определитесь, кто Вы:
Внимание! Время в таблицах - всемирное. Для получения местного времени необходимо прибавить поправку, которая равна 1 ч.
Смотрите также архив погоды в соседних городах и на ближайших метеорологических станциях:
Партнеры нашего сайта:      
Пояснения к столбцам:
  • Ветер - указаны скорость ветра в м/с - средняя за 10 мин, порывы в срок и между сроками (в фигурных скобках) и направление, откуда дует ветер: С - северный,
  • СВ - северо-восточный, В - восточный, ЮВ - юго-восточный, Ю - южный, ЮЗ - юго-западный, З - западный, СЗ - северо-западный.
  • Видимость - горизонтальная дальность видимости в метрах или километрах. При видимости от 1 до 10 км при отсутствии осадков обычно наблюдается дымка, при ухудшении видимости до 1 км и менее - туман. В сухую погоду видимость может ухудшаться дымом, пылью или мглою.
  • Явления - указаны атмосферные явления, наблюдавшиеся в срок или в последний час перед сроком; фигурными скобками обозначены явления, наблюдавшиеся между сроками (за 1-3 часа до срока); квадратными скобками обозначены град или гололедные отложения с указанием их диаметра в мм.
  • Облачность - указаны через наклонную черту общая и нижняя облачность в баллах и высота нижней границы облаков в метрах; квадратными скобками обозначены формы облаков: Ci - перистые, Cs - перисто-слоистые, Cc - перисто-кучевые, Ac - высококучевые, As - высокослоистые, Sc - слоисто-кучевые, Ns - слоисто-дождевые, Cu - кучевые, Cb - кучево-дождевые. Подробнее классификацию облаков см. в Атласе облаков (PDF).
  • T - Температура воздуха - температура, измеренная на высоте 2 м над землей.
  • Td - Температура точки росы - температура, при понижении до которой содержащийся в воздухе водяной пар достигнет насыщения.
  • f - Относительная влажность воздуха - влажноcть воздуха, измеренная на высоте 2 м над землей.
  • Te - Эффективная температура - температура, которую ощущает одетый по сезону человек в тени. Характеристика душности погоды. При расчете учитывается влияние влажности воздуха и скорости ветра на теплоощущения человека.
  • Tes - Эффективная температура на солнце - температура, которую ощущает человек, с поправкой на солнечный нагрев. Характеристика знойности погоды. Зависит от высоты солнца над горизонтом, облачности и скорости ветра. Ночью, в пасмурную погоду, а также при ветре 12 м/с и более поправка равна нулю.
  • P - Атмосферное давление - приведенное к уровню моря атмосферное давление.
  • Po - Атмосферное давление - измеренное на уровне метеостанции атмосферное давление.
  • Tmin - Минимальная температура - минимум температуры воздуха на высоте 2 м над землей.
  • Tmax - Максимальная температура - максимум температуры воздуха на высоте 2 м над землей.
  • R - Количество осадков - Количество выпавших осадков за период времени, мм. При наведении курсора мыши на число - период времени, за который выпало указанное количество осадков.
  • R24 - Количество осадков - Количество выпавших осадков за 24 часа, мм.
  • S - Снежный покров - Высота снежного покрова, см. При наведении курсора мыши на число - состояние снежного покрова и степень покрытия местности в баллах.